Temp
8 8 8 8 8 8 8 8 8 8 8 8 8 7 7 7 8 10 10 9 9 9 9 9 10 9 9 7 7 9 8 8 8 8 8 7 6 5 5 6 6 7 7 9 8 8 7
8 8 8 8 8 8 8 8 8 8 8 8 7 7 7 8 9 10 10 9 10 10 10 10 10 9 9 6 8 9 8 8 8 8 7 7 6 7 6 6 6 7 8 9 9 8 9
8 8 8 8 8 7 7 7 7 7 7 8 7 7 7 8 9 9 10 10 10 10 10 10 9 10 7 7 9 9 8 8 8 8 7 8 8 6 6 5 7 8 6 7 9 9 9
8 8 7 7 7 7 7 7 7 7 7 7 7 7 7 8 8 9 9 10 9 10 10 10 10 10 8 9 9 9 8 8 9 9 9 8 8 6 6 6 6 7 6 2 8 10 10
7 7 7 7 7 7 7 7 7 7 8 8 8 8 8 9 8 9 9 10 10 10 11 11 10 9 7 9 9 9 8 8 9 9 9 9 8 6 7 3 0 1 1 4 6 10 11
7 7 8 7 7 7 7 7 7 8 9 10 9 9 9 9 8 9 9 10 10 10 11 10 10 7 8 7 9 9 8 8 8 8 8 8 4 4 4 2 -0 -2 -1 4 6 8 8
8 9 9 9 9 8 7 7 8 8 10 10 10 9 9 9 9 9 9 9 7 7 9 8 8 7 8 9 10 9 7 8 7 6 4 5 2 1 3 4 4 4 4 4 6 9 7
8 9 9 10 9 8 8 7 7 8 10 11 11 10 9 9 8 9 9 5 5 5 7 9 9 9 9 9 7 8 7 5 4 4 4 2 0 4 5 5 4 4 -0 1 5 7 6
10 10 9 11 10 9 9 9 9 9 10 11 11 11 9 9 9 8 7 5 5 6 5 9 9 8 8 8 7 6 6 5 4 3 3 2 4 5 3 3 -1 0 -0 2 4 7 7
10 11 10 10 10 11 10 10 9 9 11 11 11 11 11 9 9 8 6 5 5 6 4 7 8 9 8 7 6 7 6 6 4 3 3 3 5 4 1 -1 2 -2 4 5 5 5 5
10 10 11 10 10 10 10 11 11 11 11 11 11 11 10 9 8 6 6 6 5 6 7 9 8 10 7 7 7 6 6 5 1 2 1 2 0 2 2 3 2 -0 3 4 5 5 5
10 10 10 10 10 11 10 10 11 11 11 11 11 11 10 9 8 7 6 6 5 8 5 7 7 5 5 6 6 6 4 5 4 3 3 1 4 2 2 4 2 1 -0 3 5 5 6
11 10 10 10 10 10 11 11 10 10 11 11 12 12 10 9 8 7 6 5 8 5 7 6 4 4 4 4 5 4 3 -0 -0 -2 -2 0 1 2 4 3 2 0 -2 0 3 2 6
11 10 10 10 11 10 10 11 11 11 11 11 12 12 11 10 9 8 6 6 7 7 6 5 4 3 5 3 3 3 2 -2 -1 -3 -4 -3 -0 -0 3 -0 2 2 1 -2 -1 3 6
11 11 11 11 11 11 11 11 11 11 12 12 12 12 11 11 11 9 4 4 3 4 4 3 3 3 3 4 2 2 0 -1 -3 -2 -4 -3 -2 1 4 1 0 0 0 1 -2 -1 4
11 11 11 11 12 12 12 11 11 12 12 12 11 11 11 13 12 11 4 6 3 4 4 3 3 3 2 2 1 0 0 2 1 1 0 -2 -1 1 3 3 1 0 2 0 2 0 1
11 11 11 11 11 12 11 12 12 12 13 12 11 8 12 13 13 4 3 4 5 5 4 3 3 2 3 2 0 0 -0 2 1 0 0 -4 -4 0 2 -2 -3 1 -1 -1 -0 1 4
11 11 11 11 11 12 11 11 12 12 12 12 9 9 12 13 6 2 4 5 5 5 4 4 3 2 2 -0 -2 -0 1 2 1 0 -1 -1 -6 -3 -2 -2 -2 -4 -3 -6 -3 -1 1
11 11 10 11 11 11 12 11 12 12 11 9 6 6 12 12 7 5 5 6 5 5 4 4 3 3 3 -0 -3 -3 0 2 1 0 -2 -2 -4 -3 1 0 0 -4 -3 -6 -8 -3 -5
11 11 10 10 11 11 11 12 12 12 11 10 5 8 5 4 4 6 5 7 6 4 4 3 2 3 3 1 1 -3 1 2 0 1 3 -0 -6 -3 -3 -2 -2 -3 -1 -5 -6 -6 -5
10 10 10 10 10 11 11 11 11 12 12 11 3 3 3 6 5 5 5 6 6 5 3 3 3 3 -2 -4 -3 -1 0 -1 -0 -0 -2 -4 -3 -0 -0 1 1 1 -1 -3 -5 -6 -4
10 10 10 10 10 10 10 11 11 11 11 8 3 1 0 0 4 6 6 2 6 5 4 2 0 3 -4 -4 -1 -3 -6 -6 -5 -5 -5 -4 -3 -2 -1 2 2 2 2 1 -1 -3 -4
10 10 10 9 9 9 9 9 9 10 11 6 4 4 1 4 4 4 2 2 3 4 4 3 0 -2 -5 -2 -3 -2 -3 -2 -3 -4 -6 -8 -6 -6 -3 1 1 -0 -1 -2 -5 -6 -4
10 10 10 9 9 9 9 8 8 8 8 6 3 3 1 5 2 4 3 4 4 4 0 1 -3 -3 0 -1 -2 -2 -3 -2 -3 -3 -3 -8 -11 -10 -4 -1 -1 2 1 -0 -3 -4 -5
10 10 10 9 8 8 8 8 8 7 5 6 4 3 -0 2 2 4 5 4 -0 -2 -0 1 -0 -1 -1 -1 -3 -2 -0 0 -1 -2 -6 -8 -12 -8 -4 -6 -0 -2 0 -1 -1 -0 -5
10 10 10 9 8 8 7 7 7 6 5 4 3 3 1 -1 2 2 1 2 -1 -3 -2 1 -1 -1 -3 -2 -1 0 1 2 0 -1 -5 -7 -12 -8 -8 -4 -1 -1 -3 -1 -3 -2 -3
11 10 10 9 8 8 7 6 6 6 4 4 3 3 2 1 0 2 0 0 -3 -4 -3 -3 -3 -3 -5 -3 -0 1 1 -2 -1 -3 -5 -6 -8 -6 -5 -6 -2 -4 -3 -1 -1 1 -2
11 10 10 10 9 9 7 6 5 5 4 4 3 2 3 1 1 2 2 -2 -4 -4 -2 -4 -4 -5 -4 -2 -2 -2 -3 -3 -4 -3 -4 -2 -5 -4 -7 -6 -0 -5 -2 -1 -2 -7 -4
11 11 10 10 9 9 8 6 5 4 4 3 2 2 1 0 1 2 2 3 3 2 -3 -7 -3 -5 -3 -5 -6 -7 -3 -7 -5 -1 0 -2 -1 -2 -1 0 -3 -3 -4 -7 -9 -6 -7
Height
863 861 858 855 853 850 848 845 842 840 837 834 831 828 826 825 823 821 820 819 818 815 813 811 809 808 805 807 810 806 803 798 793 791 790 790 793 796 794 787 785 782 777 771 776 777 779
865 862 860 857 854 851 848 846 843 841 838 835 832 829 826 825 823 821 820 819 818 816 814 812 810 811 808 812 809 805 800 792 788 786 785 785 787 787 788 787 787 779 773 768 768 769 772
866 864 861 859 856 853 850 847 844 842 839 836 833 829 826 824 823 821 819 819 818 816 814 812 811 810 809 815 808 803 797 790 784 782 781 780 782 785 783 786 777 775 777 770 763 764 762
869 866 863 860 857 854 851 848 845 843 840 837 833 829 826 824 822 820 819 817 817 816 813 811 811 810 811 810 806 799 792 785 780 777 776 774 777 781 784 782 778 779 778 794 759 753 757
870 868 865 862 858 855 852 849 846 843 840 836 833 828 825 823 821 819 817 815 816 817 813 811 811 810 816 809 801 798 792 784 778 771 772 773 776 780 779 794 808 801 808 786 771 747 744
871 869 866 863 860 857 853 849 846 842 839 836 832 828 824 823 821 819 817 815 816 816 813 812 814 817 812 810 804 799 793 786 781 776 775 778 789 789 789 798 819 825 819 782 773 758 756
872 869 867 864 861 857 854 850 846 842 839 836 833 829 825 824 821 818 816 816 820 821 817 823 824 822 818 810 805 800 793 786 784 784 792 787 799 807 796 785 783 784 782 784 772 756 761
874 871 868 865 862 858 854 851 846 842 839 836 833 829 826 824 822 821 817 821 828 829 826 821 820 819 818 813 807 799 796 795 795 799 794 802 812 792 786 781 784 783 804 798 769 764 768
875 872 869 866 862 858 854 850 846 842 838 835 832 829 826 823 823 822 823 827 827 828 830 821 820 819 817 814 813 809 804 801 802 802 803 806 796 787 788 786 803 799 801 792 778 760 758
876 873 870 867 863 859 855 851 846 842 838 834 832 829 826 822 824 824 826 828 827 828 843 834 825 822 820 816 820 814 809 806 808 807 802 803 792 791 798 807 791 812 778 774 769 772 768
878 875 871 868 864 860 856 851 846 842 837 834 832 830 826 823 826 826 828 826 827 828 851 831 828 823 823 826 822 815 813 808 818 812 817 809 808 798 795 792 789 801 782 778 771 768 767
880 876 873 869 864 860 856 851 846 842 837 833 832 830 827 826 826 827 825 825 827 833 872 845 837 840 837 828 823 819 819 812 810 811 806 811 794 800 797 787 788 789 793 780 769 769 762
882 878 874 870 865 861 856 851 846 840 836 832 831 830 827 826 828 825 824 825 833 865 850 852 854 848 846 839 829 827 829 835 840 844 840 818 810 798 791 789 788 796 810 809 793 801 765
883 879 875 871 867 862 856 851 846 840 834 831 830 830 829 827 826 824 823 831 852 860 861 860 858 854 846 844 839 835 838 855 844 856 862 853 830 817 797 810 803 793 801 827 836 798 763
885 881 877 873 868 863 857 850 844 839 834 830 829 830 829 828 825 822 829 863 883 874 872 874 866 861 856 849 855 847 853 855 861 853 869 860 849 815 801 804 805 807 809 803 825 815 780
887 883 880 875 870 865 858 851 844 839 833 830 830 830 830 828 825 823 846 863 876 871 871 872 875 869 869 863 864 860 855 846 849 847 844 854 847 819 804 800 804 811 805 815 799 826 827
889 885 882 877 872 868 861 853 846 839 833 830 830 834 832 828 827 838 869 873 867 866 870 875 873 873 868 870 870 864 863 849 849 847 845 860 863 833 814 835 843 812 825 824 820 815 790
890 887 883 879 874 870 864 856 848 840 835 831 833 843 834 830 846 862 870 864 866 866 868 869 871 872 870 875 879 869 859 853 850 849 855 849 871 863 846 833 830 839 839 853 848 839 824
891 888 885 881 877 873 867 860 852 844 838 836 843 845 837 832 858 865 864 863 865 864 865 867 868 867 866 875 888 879 861 850 851 852 860 854 866 869 833 830 825 848 842 852 862 841 864
892 889 886 883 879 875 870 864 857 849 843 840 845 850 849 848 859 859 864 859 860 864 865 866 868 866 865 868 867 878 857 849 853 852 844 848 876 868 874 854 850 854 838 850 858 868 864
892 890 887 884 880 877 872 867 861 854 847 844 853 869 869 863 861 862 864 862 859 861 866 866 866 865 881 895 885 870 860 861 857 855 856 864 867 850 845 835 832 828 836 846 858 860 856
891 890 888 884 881 878 874 870 865 859 853 852 865 873 870 872 864 861 860 869 858 860 863 865 873 861 882 887 871 879 881 884 878 869 868 867 868 858 850 824 825 824 818 822 834 839 848
891 889 887 885 882 879 876 873 868 863 858 860 866 868 869 863 864 865 872 868 864 860 857 857 864 872 881 864 862 859 860 861 865 872 879 886 883 884 861 829 830 839 832 836 847 847 839
889 888 886 884 882 880 877 874 871 867 865 865 868 868 870 864 870 864 865 861 858 858 867 859 865 870 857 854 853 853 857 857 861 863 866 888 903 901 873 844 853 817 816 819 830 831 831
886 886 884 883 881 879 878 875 872 870 868 867 868 868 873 873 868 860 858 860 864 864 862 858 858 856 854 854 860 857 850 850 853 857 872 878 904 894 875 886 834 831 817 822 824 815 820
883 883 882 881 880 878 877 875 873 871 870 868 869 868 869 879 865 860 864 860 869 872 865 856 856 855 856 859 858 860 852 842 850 857 871 877 894 890 892 872 851 819 820 814 822 827 808
880 880 879 879 877 876 875 874 873 871 869 868 868 867 868 870 859 859 864 863 865 870 870 863 859 858 860 864 859 856 852 860 859 868 870 876 885 879 873 879 833 818 815 814 827 811 803
875 875 875 875 874 873 872 871 870 869 868 868 867 866 868 867 855 853 853 859 862 864 868 860 864 862 865 865 865 863 870 862 867 851 856 849 865 860 873 875 829 814 817 815 801 806 801
869 870 870 870 869 869 868 867 866 866 866 865 865 865 864 864 854 850 848 847 848 849 855 861 859 860 854 866 872 876 864 874 865 849 826 843 826 834 828 808 800 800 796 796 798 798 800
Wind_Speed
20 20 19 19 19 18 18 19 20 21 22 21 20 17 14 13 8 6 8 12 12 6 17 23 20 16 15 5 2 22 22 26 21 20 15 8 7 6 6 5 8 7 11 5 9 12 14
20 20 20 20 19 19 19 18 18 19 21 22 20 17 12 11 7 2 2 6 12 15 13 19 16 8 18 14 24 23 29 30 26 21 16 10 6 7 7 10 8 9 13 13 8 13 8
19 19 20 20 20 20 20 19 18 18 18 19 21 18 12 10 8 5 5 4 5 12 19 16 18 7 11 9 25 18 33 34 21 13 5 12 14 6 2 5 8 11 14 11 9 10 7
19 19 20 20 21 21 21 20 19 18 18 19 20 19 14 8 14 6 11 12 11 13 20 12 20 3 2 23 28 23 35 38 25 21 19 19 11 6 4 5 8 5 4 3 6 7 7
19 19 20 20 20 21 21 20 19 19 19 21 21 21 17 7 13 11 6 8 10 11 18 1 19 5 4 26 29 29 34 26 25 21 2 4 5 5 3 2 5 5 4 7 8 4 4
18 19 20 20 20 21 21 21 21 19 19 21 23 24 19 10 13 10 7 5 2 6 13 3 14 5 7 13 19 30 33 21 13 15 5 6 6 4 4 3 4 5 3 5 6 6 6
19 20 20 21 21 22 22 22 22 20 17 19 24 25 18 9 15 12 4 1 5 6 8 5 2 5 6 28 11 26 33 12 9 6 6 4 10 7 10 6 4 6 2 5 5 6 5
20 20 20 21 22 22 23 23 22 22 18 17 20 23 19 7 13 18 9 7 2 2 3 1 5 1 16 17 9 23 35 7 7 8 7 7 4 12 13 8 5 2 1 6 6 8 4
20 21 21 22 22 23 24 24 24 23 20 16 19 22 19 6 9 9 19 8 4 1 2 1 3 3 8 8 6 14 21 7 5 8 7 5 9 12 11 7 5 3 2 2 4 7 4
22 22 22 23 23 24 24 24 25 24 22 15 17 21 18 6 3 5 5 7 1 1 4 8 8 6 12 9 7 14 21 4 6 5 4 2 10 8 7 3 7 3 7 8 7 2 3
23 23 24 24 25 25 25 25 26 25 23 14 12 19 15 14 3 4 6 2 2 2 6 16 7 5 12 5 7 8 28 4 3 7 5 5 5 6 7 10 2 7 9 6 5 5 4
25 26 26 25 26 27 26 26 27 26 24 14 9 16 18 8 4 10 7 4 2 5 2 8 8 9 11 4 6 6 6 11 4 5 5 5 3 3 3 5 2 3 4 2 2 1 1
26 27 27 27 27 27 29 30 28 27 25 13 6 8 17 10 7 9 3 3 5 7 5 10 6 9 14 6 7 9 7 13 12 8 8 7 6 7 9 5 2 9 4 3 4 3 3
24 27 29 29 30 30 29 31 32 29 26 12 4 4 11 11 12 7 1 5 9 1 4 4 7 14 5 10 6 11 8 6 6 5 3 6 10 6 12 4 5 6 1 4 4 1 1
22 26 29 32 33 33 33 33 33 30 26 11 3 2 7 15 15 7 5 7 5 3 2 6 11 4 6 6 5 9 7 6 1 6 3 6 6 6 4 3 4 7 5 2 1 3 4
21 24 28 31 34 35 36 37 38 32 25 9 2 2 8 14 13 7 6 5 2 3 1 2 3 4 4 7 9 9 7 3 7 7 1 4 5 3 7 6 5 5 2 4 3 4 2
20 22 25 29 32 34 36 39 39 35 25 9 2 3 13 14 6 6 4 2 2 4 3 3 2 4 4 4 2 5 5 4 6 7 4 1 2 8 5 5 3 8 5 4 2 2 3
18 20 23 27 30 32 35 38 39 35 29 8 3 4 16 11 5 3 3 2 2 3 3 3 2 3 3 3 3 3 4 4 5 4 4 3 4 3 7 5 5 5 0 3 4 6 2
15 18 21 24 27 29 32 36 37 32 29 6 2 1 9 7 4 3 1 2 3 2 3 1 2 3 2 3 2 3 3 2 6 7 4 4 3 4 8 5 5 4 5 1 1 2 1
13 15 18 21 24 26 30 33 37 31 25 5 3 4 4 5 1 3 3 1 2 2 2 2 3 2 2 3 4 4 3 1 5 5 10 2 1 5 5 7 3 6 6 4 4 3 3
11 14 16 18 21 24 27 30 33 33 23 4 4 0 3 4 4 2 2 1 3 3 2 4 2 4 4 3 4 4 2 5 3 8 5 4 1 2 8 12 6 8 4 1 2 5 4
9 12 14 16 18 21 24 26 29 31 16 11 3 3 3 2 2 3 2 3 2 3 4 3 3 2 6 5 8 5 2 2 5 5 4 5 2 5 4 5 6 7 7 4 3 3 2
9 10 13 14 16 18 20 23 26 27 20 6 4 2 3 2 2 2 3 4 4 2 3 5 6 1 1 11 7 8 6 4 5 1 2 3 3 4 5 5 4 5 6 4 3 4 5
10 11 12 15 15 15 16 19 21 21 21 9 5 1 2 3 1 3 1 3 5 4 4 3 5 5 4 4 5 3 4 7 5 6 5 1 2 2 4 5 3 5 2 4 6 7 7
11 13 11 13 13 13 13 14 15 15 13 17 8 2 2 3 2 4 3 4 6 5 3 3 4 5 2 4 4 5 1 1 2 4 3 4 3 2 1 2 6 6 4 5 6 6 6
13 14 13 12 13 13 12 10 11 10 9 7 11 5 3 3 4 2 1 1 2 3 5 3 2 2 4 1 3 2 3 1 3 2 5 4 5 3 2 1 5 6 3 5 4 4 5
17 16 16 14 14 13 11 9 7 8 6 5 3 6 3 1 3 4 3 3 3 1 2 3 3 3 3 1 1 1 3 2 2 2 6 2 1 4 3 4 8 5 6 5 5 6 5
18 18 17 17 17 15 13 11 7 6 3 4 3 1 1 2 4 7 7 4 1 1 3 3 3 3 2 2 2 3 2 3 0 4 5 6 5 4 2 1 7 6 5 6 6 2 5
21 21 20 19 19 18 17 15 12 8 5 3 3 3 5 5 5 6 12 12 9 6 4 1 3 3 3 3 1 2 2 0 3 4 1 2 6 4 8 6 3 11 5 4 5 6 5
Wind_Direction
36 34 34 33 32 29 27 25 24 23 23 20 18 17 18 19 26 40 49 31 33 32 17 14 12 31 53 69 23 339 342 338 327 321 307 297 286 298 254 289 325 223 265 301 297 302 303
34 31 30 28 28 27 25 22 20 20 20 20 17 13 14 16 11 341 359 15 38 25 359 6 14 42 49 40 348 342 345 335 328 315 283 258 252 254 277 264 270 278 291 290 260 286 249
34 30 27 24 23 22 21 19 18 15 13 13 15 12 6 9 358 298 279 312 343 354 350 357 359 344 52 18 352 340 348 340 337 314 269 271 256 199 310 309 257 271 278 294 273 250 260
30 29 26 23 20 18 18 16 13 12 11 12 11 11 5 2 358 320 277 264 280 329 342 338 7 73 39 352 351 357 350 344 341 320 292 271 271 195 230 276 304 288 299 348 292 238 216
29 27 24 21 19 17 14 13 11 9 10 12 10 10 10 16 3 350 334 305 259 327 346 358 3 88 355 341 0 354 352 340 332 329 45 103 138 189 243 171 346 353 243 274 299 273 233
28 25 24 21 18 15 13 10 10 9 10 13 11 10 16 30 20 2 355 36 78 12 29 76 16 45 337 336 346 348 354 352 344 20 31 61 33 17 15 61 232 245 288 265 267 340 2
26 24 21 19 17 15 13 10 8 6 4 7 11 10 16 32 26 13 14 74 26 359 26 124 232 137 288 329 342 347 357 348 359 38 24 12 39 350 307 311 245 275 290 293 257 277 339
25 21 20 19 16 13 11 9 6 5 2 360 5 9 8 26 38 32 70 73 114 191 65 124 128 141 346 339 324 355 5 33 17 15 2 23 28 335 336 308 315 303 58 288 291 18 323
26 22 20 18 16 13 11 10 8 5 3 360 3 8 8 18 52 37 60 64 115 169 117 236 117 330 4 10 328 355 8 348 1 345 16 81 326 334 349 25 44 307 177 280 249 319 294
28 25 20 19 14 13 11 8 6 3 3 357 6 9 14 12 58 18 56 358 93 74 74 329 349 357 5 353 333 25 9 30 350 317 350 359 328 355 349 355 24 341 2 354 344 326 248
28 25 21 19 16 12 9 9 7 5 2 353 355 9 14 43 20 52 321 313 116 98 43 328 335 312 352 34 276 341 19 20 348 313 54 270 295 0 6 333 295 242 324 302 278 300 8
29 26 22 19 16 12 9 8 7 3 1 355 352 10 18 32 62 3 346 140 160 45 323 330 338 342 355 309 319 314 20 11 62 336 359 230 274 109 270 319 1 310 357 337 198 225 321
28 26 23 20 17 13 10 7 5 1 360 358 357 13 21 27 343 339 353 109 46 72 344 326 331 341 334 304 330 357 4 27 34 6 2 331 302 318 353 0 343 5 40 17 29 37 238
28 27 25 22 18 14 13 11 8 4 360 2 13 17 17 11 349 352 157 54 64 339 332 346 327 323 324 6 338 338 9 10 7 61 326 19 346 23 338 131 304 311 34 123 166 134 94
27 27 24 22 20 16 13 10 10 7 360 8 40 33 16 6 357 5 67 47 173 231 297 322 318 340 323 356 17 8 19 353 292 17 65 14 299 324 335 347 20 318 29 222 134 266 65
26 25 23 21 20 17 14 11 7 10 3 10 64 54 14 2 12 59 67 101 197 199 1 325 321 20 309 322 1 1 348 334 348 3 326 279 298 261 305 359 348 106 288 27 348 37 41
23 24 21 20 19 17 14 13 8 7 10 13 34 52 358 0 40 50 86 140 211 156 143 208 289 293 287 307 318 303 287 315 3 342 24 83 106 299 360 10 61 7 18 359 135 41 359
20 20 21 21 20 17 16 14 11 6 11 22 22 46 356 7 47 59 98 166 171 226 167 222 211 248 248 288 288 301 312 225 3 355 344 269 155 294 238 255 183 127 265 115 101 305 49
18 18 18 20 20 19 18 17 13 9 8 3 70 276 11 17 64 5 235 233 210 216 215 217 254 195 238 246 351 228 279 255 35 22 352 314 354 349 351 351 2 29 347 255 130 69 17
9 14 15 16 18 19 19 19 18 12 6 27 69 18 340 43 87 105 21 250 290 197 243 172 245 263 297 288 209 278 286 322 1 360 3 68 100 148 197 229 231 325 341 344 88 80 272
1 3 9 12 12 13 17 19 20 17 15 39 32 226 176 330 355 6 143 213 297 307 225 195 285 220 161 304 306 244 299 321 356 356 8 81 168 313 253 257 261 270 274 347 99 211 149
351 349 358 5 7 10 11 15 20 23 26 58 69 41 0 270 288 318 38 252 253 293 193 248 183 198 170 198 196 265 145 166 236 326 27 2 281 346 291 275 252 267 267 269 193 222 262
324 335 346 352 358 3 6 13 17 28 36 72 48 120 111 275 323 35 230 225 242 130 248 195 194 133 239 236 215 228 204 204 209 107 318 52 24 23 280 352 351 337 232 204 243 210 172
308 320 332 342 347 350 356 7 14 31 43 68 51 71 79 284 110 229 225 232 250 225 221 236 123 128 244 313 286 228 251 250 237 240 179 101 70 98 272 346 8 257 170 161 198 234 219
298 306 313 322 333 333 341 355 5 27 46 58 54 74 104 279 225 295 306 270 309 293 268 234 232 208 321 357 7 349 344 222 269 223 169 135 113 321 76 232 289 328 218 192 175 282 209
286 296 302 313 321 317 323 332 349 12 37 52 51 59 113 122 255 177 256 221 245 300 331 241 66 357 69 76 52 26 281 262 283 111 62 75 90 132 38 148 229 233 230 131 99 296 211
277 285 293 301 302 310 305 300 323 342 21 26 58 43 125 228 253 152 206 204 151 101 226 306 307 358 57 54 36 232 282 146 283 231 206 194 223 189 211 239 284 224 165 127 79 244 184
269 275 281 287 295 300 293 277 270 292 314 341 303 233 47 240 263 208 190 157 64 155 165 251 24 350 34 64 128 255 161 245 294 229 196 185 157 214 82 355 293 152 93 168 210 284 183
264 269 273 279 284 287 285 266 255 245 258 276 274 277 266 209 263 232 241 240 229 195 145 234 191 199 210 87 354 59 291 45 189 275 169 288 195 192 178 224 220 199 195 226 175 160 213